#timestamp,LO_Frequency,Hit,StdDev 
1593874815.9,286047000.8,N
1593874835.7,286047001.2,N
1593874855.6,286047000.8,N
1593874875.4,286046998.2,N
1593874895.2,286047000.3,N
1593874915.1,286046999.7,N
1593874916.0,286046999.7,N
1593874935.8,286047000.4,N
1593874955.6,286046999.8,N
1593874975.5,286047001.0,N
1593874995.3,286047001.1,N
1593875015.2,286046999.4,N
1593875035.9,286046998.9,N
1593875055.7,286046999.0,N
1593875075.6,286046998.7,N
1593875095.4,286046998.8,N
1593875115.2,286046999.2,N
1593875135.1,286046999.0,N
1593875136.0,286046999.0,N
1593875155.8,286046999.3,N
1593875175.7,286046996.5,Y
1593875195.5,286046996.9,P
1593875215.3,286046996.6,N
1593875235.2,286046996.6,N
1593875255.0,286046997.0,N
1593875255.9,286046997.0,N
1593875275.7,286046997.0,N
1593875295.6,286046996.7,Y
1593875315.4,286047000.7,P
1593875335.3,286047000.5,N
1593875355.1,286047000.7,N
1593875356.0,286047000.7,N
1593875375.8,286047000.7,N
1593875395.7,286047000.4,N
1593875415.5,286047000.4,N
1593875435.3,286047000.6,N
1593875455.2,286047000.8,N
1593875475.0,286046998.8,N
1593875475.9,286046998.8,N
1593875495.8,286046998.2,N
1593875515.6,286046998.4,N
1593875535.4,286046998.5,N
1593875555.3,286046998.2,N
1593875575.1,286046998.7,N
1593875595.8,286046998.6,N
1593875615.7,286046998.4,N
1593875635.5,286046998.4,N
1593875655.4,286046998.8,N
1593875675.2,286046998.7,N
1593875695.0,286047000.8,N
1593875695.9,286047000.8,N
1593875715.8,286046998.4,N
1593875735.6,286046999.3,N
1593875755.5,286046998.9,N
1593875775.3,286046998.9,N
1593875795.1,286046998.1,N
1593875815.9,286046998.9,N
1593875835.7,286046998.3,N
1593875855.6,286046999.0,N
1593875875.4,286046999.0,N
1593875895.2,286046998.8,N
1593875915.1,286046998.9,N
1593875916.0,286046998.9,N
1593875935.8,286046998.3,N
1593875955.6,286046998.9,N
1593875975.5,286046998.9,N
1593875995.3,286046999.2,N
1593876015.2,286046998.2,Y
1593876035.9,286047000.4,P
1593876055.7,286047000.6,N
1593876075.6,286047000.5,N
1593876095.4,286047000.0,N
1593876115.3,286047001.0,N
1593876135.1,286046999.9,N
1593876136.0,286046999.9,N
1593876155.8,286047000.6,N
1593876175.7,286047001.0,N
1593876195.5,286047000.4,N
1593876215.3,286047000.0,N
1593876235.2,286047000.1,N
1593876255.0,286046999.8,N
1593876255.9,286046999.8,N
1593876275.8,286047002.5,Y
1593876295.6,286047000.0,P
1593876315.4,286047000.6,P
1593876335.3,286047000.4,N
1593876355.1,286047001.0,Y
1593876375.9,286047000.7,P
1593876395.7,286047000.5,N
1593876415.5,286047000.3,N
1593876435.4,286047000.7,Y
1593876455.2,286047000.6,P
1593876475.1,286047001.1,P
1593876476.0,286047001.1,P
1593876495.8,286047000.7,N
1593876515.6,286046998.2,Y
1593876535.5,286046998.3,P
1593876555.3,286046998.2,N
1593876575.1,286046998.1,N
1593876595.9,286046998.4,N
1593876615.7,286046998.3,N
1593876635.6,286046998.6,N
1593876655.4,286046998.1,N
1593876675.2,286047001.2,N
1593876695.1,286047001.1,N
1593876696.0,286047001.1,N
1593876715.8,286047000.8,N
1593876735.7,286047000.8,N
1593876755.5,286047000.8,N
1593876775.3,286047000.7,N
1593876795.2,286047000.6,N
1593876815.0,286046999.9,N
1593876815.9,286046999.9,N
1593876835.7,286047002.8,N
1593876855.6,286047000.0,N
1593876875.4,286046999.7,N
1593876895.3,286047002.8,N
1593876915.1,286046999.7,N
1593876935.8,286047000.1,N
1593876955.7,286047002.6,N
1593876975.5,286047002.0,N
1593876995.4,286047002.1,N
1593877015.2,286047002.2,N
1593877035.0,286047002.2,N
1593877035.9,286047002.2,N
1593877055.8,286047001.6,N
1593877075.6,286047002.1,N
1593877095.4,286047002.0,N
1593877115.3,286047001.9,N
1593877135.1,286047001.6,N
1593877155.9,286047001.7,N
1593877175.7,286047001.8,N
1593877195.5,286047001.7,N
1593877215.4,286047001.4,N
1593877235.2,286047004.0,Y
1593877255.1,286047001.6,P
1593877256.0,286047001.6,P
1593877275.8,286047002.6,P
1593877295.6,286047002.6,Y
1593877315.5,286046999.7,P
1593877335.3,286047000.4,N
1593877355.2,286047000.4,N
1593877375.9,286047000.1,N
1593877395.7,286047000.3,N
1593877415.6,286046999.7,N
1593877435.4,286047000.1,N
1593877455.2,286046999.9,N
1593877475.1,286047000.3,N
1593877476.0,286047000.3,N
1593877495.8,286047000.3,N
1593877515.7,286047000.0,N
1593877535.5,286047000.0,N
1593877555.3,286047002.8,Y
1593877575.2,286046999.8,P
1593877595.0,286047001.7,P
1593877595.9,286047001.7,N
1593877615.8,286047003.8,Y
1593877635.6,286047002.2,P
1593877655.4,286047002.5,P
1593877675.3,286047002.6,P
1593877695.1,286047002.6,Y
1593877715.8,286047001.0,P
1593877735.7,286047000.3,N
1593877755.5,286046998.8,N
1593877775.4,286046998.7,N
1593877795.2,286046998.3,N
1593877815.0,286046998.8,N
1593877815.9,286046998.8,N
1593877835.8,286046998.7,N
1593877855.6,286046998.2,N
1593877875.4,286047000.9,N
1593877895.3,286047001.1,N
1593877915.1,286047000.8,N
1593877935.9,286046999.8,N
1593877955.7,286047000.3,N
1593877975.5,286047000.9,N
1593877995.4,286047000.7,N
1593878015.2,286047001.2,N
1593878035.0,286047000.8,N
1593878035.9,286047000.8,N
1593878055.8,286047000.9,N
1593878075.6,286046998.6,N
1593878095.5,286047000.7,N
1593878115.3,286047000.7,N
1593878135.1,286047001.0,N
1593878155.9,286047001.1,N
1593878175.7,286047000.4,N
1593878195.5,286047000.4,N
1593878215.4,286047000.2,N
1593878235.2,286047001.0,N
1593878255.1,286047000.5,N
1593878256.0,286047000.5,N
1593878275.8,286047000.0,N
1593878295.6,286047000.6,N
1593878315.5,286047000.5,N
1593878335.3,286047000.4,N
1593878355.1,286047000.8,N
1593878375.9,286047000.7,N
1593878395.7,286047001.0,N
